Time,TemperatureF,DewpointF,PressureIn,WindDirection,WindDirectionDegrees,WindSpeedMPH,WindSpeedGustMPH,Humidity,HourlyPrecipIn,Conditions,Clouds,dailyrainin,SoftwareType,DateUTC
2013-05-05 00:00:00,55.0,49.0,30.03,WNW,292,0.0,2.0,79,0.00,,,0.00,,2013-05-05 04:00:00,
2013-05-05 00:23:00,55.0,49.0,30.03,WNW,292,0.0,2.0,79,0.00,,,0.00,,2013-05-05 04:23:00,
2013-05-05 00:33:00,55.0,49.0,30.03,WNW,292,0.0,2.0,79,0.00,,,0.00,,2013-05-05 04:33:00,
2013-05-05 00:43:00,55.0,49.0,30.03,WNW,292,0.0,2.0,79,0.00,,,0.00,,2013-05-05 04:43:00,
2013-05-05 00:53:00,55.0,49.0,30.03,WNW,292,0.0,2.0,79,0.00,,,0.00,,2013-05-05 04:53:00,
2013-05-05 05:00:00,51.0,47.0,29.98,NW,315,0.0,2.0,85,0.00,,,0.00,,2013-05-05 09:00:00,
2013-05-05 05:22:00,51.0,47.0,29.98,NW,315,0.0,2.0,85,0.00,,,0.00,,2013-05-05 09:22:00,
2013-05-05 05:33:00,51.0,47.0,29.98,NW,315,0.0,2.0,85,0.00,,,0.00,,2013-05-05 09:33:00,
2013-05-05 05:42:00,51.0,47.0,29.98,NW,315,0.0,2.0,85,0.00,,,0.00,,2013-05-05 09:42:00,
2013-05-05 05:52:00,51.0,47.0,29.98,NW,315,0.0,2.0,85,0.00,,,0.00,,2013-05-05 09:52:00,
2013-05-05 06:00:00,50.0,46.0,29.98,NW,315,0.0,3.0,86,0.00,,,0.00,,2013-05-05 10:00:00,
2013-05-05 06:22:00,50.0,46.0,29.98,NW,315,0.0,3.0,86,0.00,,,0.00,,2013-05-05 10:22:00,
2013-05-05 06:32:00,50.0,46.0,29.98,NW,315,0.0,3.0,86,0.00,,,0.00,,2013-05-05 10:32:00,
2013-05-05 06:42:00,50.0,46.0,29.98,NW,315,0.0,3.0,86,0.00,,,0.00,,2013-05-05 10:42:00,
2013-05-05 06:53:00,50.0,46.0,29.98,NW,315,0.0,3.0,86,0.00,,,0.00,,2013-05-05 10:53:00,
2013-05-05 07:00:00,50.0,46.0,29.99,WNW,292,0.0,3.0,86,0.00,,,0.00,,2013-05-05 11:00:00,
2013-05-05 07:22:00,50.0,46.0,29.99,WNW,292,0.0,3.0,86,0.00,,,0.00,,2013-05-05 11:22:00,
2013-05-05 07:32:00,50.0,46.0,29.99,WNW,292,0.0,3.0,86,0.00,,,0.00,,2013-05-05 11:32:00,
2013-05-05 07:42:00,50.0,46.0,29.99,WNW,292,0.0,3.0,86,0.00,,,0.00,,2013-05-05 11:42:00,
2013-05-05 07:52:00,50.0,46.0,29.99,WNW,292,0.0,3.0,86,0.00,,,0.00,,2013-05-05 11:52:00,
2013-05-05 10:52:00,50.0,47.0,30.00,NW,315,0.0,2.0,91,0.00,,,0.00,,2013-05-05 14:52:00,
2013-05-05 11:00:00,51.0,48.0,30.00,SSE,157,0.0,2.0,90,0.00,,,0.00,,2013-05-05 15:00:00,
2013-05-05 11:02:00,50.0,47.0,30.00,NW,315,0.0,2.0,91,0.00,,,0.00,,2013-05-05 15:02:00,
2013-05-05 11:11:00,50.0,47.0,30.00,NW,315,0.0,2.0,91,0.00,,,0.00,,2013-05-05 15:11:00,
2013-05-05 11:21:00,51.0,48.0,30.00,SSE,157,0.0,2.0,90,0.00,,,0.00,,2013-05-05 15:21:00,
2013-05-05 11:33:00,51.0,48.0,30.00,SSE,157,0.0,2.0,90,0.00,,,0.00,,2013-05-05 15:33:00,
2013-05-05 11:43:00,51.0,48.0,30.00,SSE,157,0.0,2.0,90,0.00,,,0.00,,2013-05-05 15:43:00,
2013-05-05 11:53:00,51.0,48.0,30.00,SSE,157,0.0,2.0,90,0.00,,,0.00,,2013-05-05 15:53:00,
2013-05-05 13:30:00,55.0,51.0,29.98,West,270,0.0,2.0,86,0.00,,,0.00,,2013-05-05 17:30:00,
2013-05-05 13:52:00,55.0,51.0,29.98,West,270,0.0,2.0,86,0.00,,,0.00,,2013-05-05 17:52:00,
2013-05-05 14:01:00,55.0,51.0,29.98,West,270,0.0,2.0,86,0.00,,,0.00,,2013-05-05 18:01:00,
2013-05-05 14:12:00,55.0,51.0,29.98,West,270,0.0,2.0,86,0.00,,,0.00,,2013-05-05 18:12:00,
2013-05-05 14:21:00,55.0,51.0,29.98,West,270,0.0,2.0,86,0.00,,,0.00,,2013-05-05 18:21:00,
2013-05-05 15:22:00,56.0,52.0,29.97,West,270,0.0,1.0,88,0.00,,,0.00,,2013-05-05 19:22:00,
2013-05-05 15:30:00,56.0,53.0,29.96,WSW,247,0.0,1.0,89,0.00,,,0.00,,2013-05-05 19:30:00,
2013-05-05 15:32:00,56.0,52.0,29.97,West,270,0.0,1.0,88,0.00,,,0.00,,2013-05-05 19:32:00,
2013-05-05 15:42:00,56.0,52.0,29.97,West,270,0.0,1.0,88,0.00,,,0.00,,2013-05-05 19:42:00,
2013-05-05 15:52:00,56.0,53.0,29.96,WSW,247,0.0,1.0,89,0.00,,,0.00,,2013-05-05 19:52:00,
2013-05-05 16:01:00,56.0,53.0,29.96,WSW,247,0.0,1.0,89,0.00,,,0.00,,2013-05-05 20:01:00,
2013-05-05 16:11:00,56.0,53.0,29.96,WSW,247,0.0,1.0,89,0.00,,,0.00,,2013-05-05 20:11:00,
2013-05-05 16:21:00,56.0,53.0,29.96,WSW,247,0.0,1.0,89,0.00,,,0.00,,2013-05-05 20:21:00,
2013-05-05 16:52:00,57.0,54.0,29.93,WNW,292,0.0,2.0,89,0.00,,,0.00,,2013-05-05 20:52:00,
2013-05-05 17:00:00,57.0,54.0,29.93,WNW,292,0.0,2.0,90,0.00,,,0.00,,2013-05-05 21:00:00,
2013-05-05 17:02:00,57.0,54.0,29.93,WNW,292,0.0,2.0,89,0.00,,,0.00,,2013-05-05 21:02:00,
2013-05-05 17:11:00,57.0,54.0,29.93,WNW,292,0.0,2.0,89,0.00,,,0.00,,2013-05-05 21:11:00,
2013-05-05 17:21:00,57.0,54.0,29.93,WNW,292,0.0,2.0,90,0.00,,,0.00,,2013-05-05 21:21:00,
2013-05-05 17:33:00,57.0,54.0,29.93,WNW,292,0.0,2.0,90,0.00,,,0.00,,2013-05-05 21:33:00,
2013-05-05 17:42:00,57.0,54.0,29.93,WNW,292,0.0,2.0,90,0.00,,,0.00,,2013-05-05 21:42:00,
2013-05-05 17:53:00,57.0,54.0,29.93,WNW,292,0.0,2.0,90,0.00,,,0.00,,2013-05-05 21:53:00,
2013-05-05 18:30:00,57.0,55.0,29.92,NW,315,0.0,3.0,94,0.00,,,0.00,,2013-05-05 22:30:00,
2013-05-05 18:52:00,57.0,55.0,29.92,NW,315,0.0,3.0,94,0.00,,,0.00,,2013-05-05 22:52:00,
2013-05-05 19:02:00,57.0,55.0,29.92,NW,315,0.0,3.0,94,0.00,,,0.00,,2013-05-05 23:02:00,
2013-05-05 19:12:00,57.0,55.0,29.92,NW,315,0.0,3.0,94,0.00,,,0.00,,2013-05-05 23:12:00,
2013-05-05 19:21:00,57.0,55.0,29.92,NW,315,0.0,3.0,94,0.00,,,0.00,,2013-05-05 23:21:00,
2013-05-05 22:21:00,57.0,55.0,29.94,North,-999,0.0,0.0,93,0.00,,,0.00,,2013-05-06 02:21:00,
2013-05-05 22:30:00,57.0,55.0,29.93,North,-999,0.0,0.0,93,0.00,,,0.00,,2013-05-06 02:30:00,
2013-05-05 22:32:00,57.0,55.0,29.94,North,-999,0.0,0.0,93,0.00,,,0.00,,2013-05-06 02:32:00,
2013-05-05 22:42:00,57.0,55.0,29.94,North,-999,0.0,0.0,93,0.00,,,0.00,,2013-05-06 02:42:00,
2013-05-05 22:52:00,57.0,55.0,29.93,North,-999,0.0,0.0,93,0.00,,,0.00,,2013-05-06 02:52:00,
2013-05-05 23:02:00,57.0,55.0,29.93,North,-999,0.0,0.0,93,0.00,,,0.00,,2013-05-06 03:02:00,
2013-05-05 23:11:00,57.0,55.0,29.93,North,-999,0.0,0.0,93,0.00,,,0.00,,2013-05-06 03:11:00,
2013-05-05 23:22:00,57.0,55.0,29.93,North,-999,0.0,0.0,93,0.00,,,0.00,,2013-05-06 03:22:00,
2013-05-05 23:53:00,57.0,55.0,29.93,North,-999,0.0,0.0,92,0.00,,,0.00,,2013-05-06 03:53:00,